• Processing (Info)

  • MPEC 2014-G50 : 2014 FY56

    The following Minor Planet Electronic Circular may be linked-to from your own Web pages, but must not otherwise be redistributed electronically.

    A form allowing access to any MPEC is at the bottom of this page.


    Read MPEC 2014-G49 Read MPEC 2014-G51


    M.P.E.C. 2014-G50                                Issued 2014 Apr. 8, 17:00 UT
    
         The Minor Planet Electronic Circulars contain information on unusual
             minor planets and routine data on comets.  They are published
       on behalf of Commission 20 of the International Astronomical Union by the
              Minor Planet Center, Smithsonian Astrophysical Observatory,
                              Cambridge, MA 02138, U.S.A.
    
                 Prepared using the Tamkin Foundation Computer Network
    
                                  MPC@CFA.HARVARD.EDU
                URL https://www.minorplanetcenter.net/    ISSN 1523-6714
    
                                       2014 FY56
    
    Observations:
         K14F56Y* C2014 03 30.34015 13 29 17.87 +23 27 03.5          21.6 VqEG050G96
         K14F56Y  C2014 03 30.34553 13 29 16.53 +23 26 52.9          21.7 VqEG050G96
         K14F56Y  C2014 03 30.35090 13 29 15.30 +23 26 43.4          21.2 VqEG050G96
         K14F56Y  C2014 03 30.35626 13 29 13.96 +23 26 31.5          22.1 VqEG050G96
         K14F56Y KC2014 03 31.28990 13 25 35.52 +22 55 46.9          21.6 RoEG050291
         K14F56Y KC2014 03 31.29303 13 25 34.76 +22 55 40.6          21.6 RoEG050291
         K14F56Y KC2014 04 01.18657 13 22 08.09 +22 25 41.6          21.6 RoEG050291
         K14F56Y KC2014 04 01.19120 13 22 07.01 +22 25 32.5          21.7 RoEG050291
         K14F56Y KC2014 04 01.19584 13 22 05.91 +22 25 23.2          22.3 RoEG050291
         K14F56Y KC2014 04 01.29133813 21 43.07 +22 22 08.9          21.8 VuEG050H21
         K14F56Y KC2014 04 01.30408513 21 40.09 +22 21 42.4          22.0 VuEG050H21
         K14F56Y KC2014 04 01.31267413 21 38.04 +22 21 24.9          22.2 VuEG050H21
         K14F56Y  C2014 04 08.25058312 56 37.25 +18 16 04.7          21.9 RtEG050H01
         K14F56Y  C2014 04 08.25529512 56 36.26 +18 15 54.5          21.9 RtEG050H01
         K14F56Y  C2014 04 08.26588412 56 34.10 +18 15 31.2          21.6 RtEG050H01
         K14F56Y  C2014 04 08.27939412 56 31.31 +18 15 01.9          21.8 RtEG050H01
    
    Observer details:
    291 LPL/Spacewatch II.  Observer R. A. Mastaler.  1.8-m f/2.7 reflector + CCD.
    G96 Mt. Lemmon Survey.  Observer J. A. Johnson.  Measurers E. J. Christensen,
        A. R. Gibbs, A. D. Grauer, R. E. Hill, J. A. Johnson, R. A. Kowalski,
        S. M. Larson, F. C. Shelly.  1.5-m reflector + CCD.
    H01 Magdalena Ridge Observatory, Socorro.  Observer W. H. Ryan.  2.4-m f/8.9
        reflector + CCD.
    H21 Astronomical Research Observatory, Westfield.  Observer R. Holmes.
        Measurers L. Buzzi, S. Foglia, T. Vorobjov, T. Linder.  0.81-m f/4.0
        astrograph + CCD.
    
    Orbital elements:
    2014 FY56                                                Earth MOID = 0.2476 AU
    Epoch 2014 May 23.0 TT = JDT 2456800.5                  MPC
    M  73.52078              (2000.0)            P               Q
    n   0.43382214     Peri.   66.74101     +0.02277294     -0.96849641
    a   1.7282036      Node    26.00200     +0.57686282     -0.18986029
    e   0.3838933      Incl.   34.44771     +0.81652353     +0.16114521
    P   2.27           H   21.3           G   0.15           U   7
    Residuals in seconds of arc
    140330 G96  0.1+  0.1-    140401 291  0.1+  0.1+    140408 H01  0.1+  0.1+
    140330 G96  0.5-  0.2-    140401 291  0.1+  0.3+    140408 H01  0.2-  0.1+
    140330 G96  0.5+  0.8+    140401 291  0.1-  0.3+    140408 H01  0.1+  0.1-
    140330 G96  0.2-  0.6-    140401 H21  0.2-  0.1-    140408 H01  0.1-  0.0
    140331 291  0.1+  0.0     140401 H21  0.1+  0.7-
    140331 291  0.1-  0.1-    140401 H21  0.3-  0.7-
    
    Ephemeris:
    2014 FY56                a,e,i = 1.73, 0.38, 34                  q = 1.0648
    Date    TT    R. A. (2000) Decl.     Delta      r     Elong.  Phase     V
    2014 03 09    14 50 42.0 +31 41 08   0.5800  1.3969   123.1    36.5    22.3
    ...
    2014 03 24    13 54 41.7 +26 37 54   0.5565  1.4782   142.6    24.2    22.0
    ...
    2014 04 01    13 22 50.5 +22 32 05   0.5680  1.5217   151.2    18.4    21.9
    ...
    2014 04 07    13 00 51.8 +19 01 30   0.5903  1.5541   154.3    16.2    22.0
    2014 04 08    12 57 27.6 +18 25 16   0.5952  1.5595   154.5    16.1    22.0
    2014 04 09    12 54 08.4 +17 48 55   0.6004  1.5649   154.5    16.0    22.0
    ...
    2014 04 15    12 36 07.7 +14 11 01   0.6385  1.5970   152.5    16.8    22.2
    ...
    2014 04 23    12 17 24.9 +09 34 24   0.7060  1.6393   146.1    20.0    22.6
    ...
    2014 05 08    11 57 15.8 +02 14 28   0.8740  1.7167   131.3    26.2    23.4
    
    A. U. Tomatic                (C) Copyright 2014 MPC           M.P.E.C. 2014-G50
    

    Read MPEC 2014-G49 Read MPEC 2014-G51


    MPEC number:

    Enter an MPEC number in one of the following forms:

    • 1997-B01 (the full form)
    • J97B01 (the packed version of the full form)
    • B01 (the abbreviated form)